Weather History for Anchorage, AK

Change the Weather History Date:

Friday, October 4, 2013

  Actual Average Record
Temperature  
Mean Temperature 45 °F 41 °F  
Max Temperature 54 °F 47 °F 61 °F (1952)
Min Temperature 36 °F 35 °F 16 °F (1920)
Degree Days  
Heating Degree Days 20    
Month to date heating degree days 83  
Since 1 July heating degree days 931  
Cooling Degree Days 0    
Month to date cooling degree days 0  
Year to date cooling degree days 21  
Moisture  
Dew Point 35 °F    
Average Humidity 71    
Maximum Humidity 89    
Minimum Humidity 34    
Precipitation  
Precipitation T in 0.09 in 0.67 in (1988)
Month to date precipitation 0.19 0.36  
Year to date precipitation 19.40 12.64  
Snow  
Snow 0.00 in 0.10 in 4.50 in (1981)
Month to date snowfall 0.0 0.5  
Since 1 July snowfall T 0.9  
Since 1 September snowfall T 0.9  
Snow Depth 0.00 in    
Sea Level Pressure  
Sea Level Pressure 29.62 in    
Wind  
Wind Speed 1 mph (SSW)    
Max Wind Speed 7 mph    
Max Gust Speed -    
Visibility 10 miles    
Events      
T = Trace of Precipitation, MM = Missing Value Source: NWS Daily Summary

Daily Weather History Graph

Daily Weather History Graph

Search for Another Location

Airport:

Trip Planner

Search our weather history database for the weather conditions in past years. The results will help you decide how hot, cold, wet, or windy it might be!

Date:

Astronomy

Oct. 04, 2013 Rise Set
Actual Time 8:15 AM AKDT 7:20 PM AKDT
Civil Twilight 7:32 AM AKDT 8:03 PM AKDT
Nautical Twilight 6:41 AM AKDT 8:53 PM AKDT
Astronomical Twilight 5:49 AM AKDT 9:46 PM AKDT
Moon 8:08 AM AKDT (10/4) 6:55 PM AKDT (10/4)
Length of Visible Light 12h 31m
Length of Day
11h 05m
Waning Crescent, 0% of the Moon is Illuminated
Oct 4
Waning Crescent
Oct 4
New
Oct 11
First Quarter
Oct 18
Full
Oct 26
Last Quarter

Hourly Weather History & Observations

Time (AKDT) Temp. Windchill Dew Point Humidity Pressure Visibility Wind Dir Wind Speed Gust Speed Precip Events Conditions
12:53 AM 44.1 °F 40.1 °F 37.9 °F 79% 29.48 in 10.0 mi SW 6.9 mph - N/A   Mostly Cloudy
1:53 AM 43.0 °F - 37.9 °F 82% 29.49 in 10.0 mi Calm Calm - N/A   Mostly Cloudy
2:53 AM 39.0 °F - 35.1 °F 86% 29.50 in 10.0 mi Calm Calm - N/A   Mostly Cloudy
3:53 AM 37.9 °F 35.5 °F 35.1 °F 89% 29.52 in 10.0 mi SSE 3.5 mph - N/A   Mostly Cloudy
4:53 AM 39.9 °F - 36.0 °F 86% 29.52 in 10.0 mi Calm Calm - N/A   Mostly Cloudy
5:53 AM 39.0 °F - 36.0 °F 89% 29.55 in 10.0 mi Calm Calm - N/A   Scattered Clouds
6:53 AM 43.0 °F - 37.0 °F 80% 29.55 in 10.0 mi Calm Calm - N/A   Mostly Cloudy
7:53 AM 39.9 °F - 36.0 °F 86% 29.57 in 10.0 mi Calm Calm - N/A   Mostly Cloudy
8:53 AM 37.9 °F - 35.1 °F 89% 29.59 in 10.0 mi Calm Calm - N/A   Mostly Cloudy
9:53 AM 42.1 °F - 37.9 °F 85% 29.60 in 10.0 mi Calm Calm - N/A   Mostly Cloudy
10:53 AM 45.0 °F 43.5 °F 39.0 °F 80% 29.62 in 10.0 mi WNW 3.5 mph - N/A   Mostly Cloudy
11:53 AM 48.0 °F - 39.0 °F 71% 29.63 in 10.0 mi Calm Calm - N/A   Mostly Cloudy
12:53 PM 52.0 °F - 34.0 °F 50% 29.64 in 10.0 mi Calm Calm - N/A   Scattered Clouds
1:53 PM 53.1 °F - 34.0 °F 48% 29.65 in 10.0 mi Calm Calm - N/A   Scattered Clouds
2:53 PM 54.0 °F - 34.0 °F 47% 29.65 in 10.0 mi West 3.5 mph - N/A   Scattered Clouds
3:53 PM 54.0 °F - 34.0 °F 47% 29.66 in 10.0 mi Calm Calm - N/A   Scattered Clouds
4:53 PM 54.0 °F - 34.0 °F 47% 29.67 in 10.0 mi West 3.5 mph - N/A   Scattered Clouds
5:53 PM 53.1 °F - 35.1 °F 50% 29.68 in 10.0 mi Calm Calm - N/A   Scattered Clouds
6:53 PM 48.9 °F - 33.1 °F 54% 29.69 in 10.0 mi Calm Calm - N/A   Scattered Clouds
7:53 PM 42.1 °F 40.2 °F 34.0 °F 73% 29.70 in 10.0 mi South 3.5 mph - N/A   Scattered Clouds
8:53 PM 39.0 °F - 33.1 °F 79% 29.72 in 10.0 mi Calm Calm - N/A   Mostly Cloudy
9:53 PM 39.9 °F 37.8 °F 33.1 °F 77% 29.72 in 10.0 mi SE 3.5 mph - N/A   Mostly Cloudy
10:53 PM 37.9 °F 34.4 °F 32.0 °F 79% 29.73 in 10.0 mi SSE 4.6 mph - N/A   Scattered Clouds
11:53 PM 37.9 °F - 32.0 °F 79% 29.75 in 10.0 mi Calm Calm - N/A   Scattered Clouds